Flag for U.S.A. Weather past 2 weeks in Oakland, California, U.S.A.

Now
54 °F

Partly cloudy.


Feels Like: 52 °F
Forecast: 54 / 60 °F
Wind: 7 mph from Southeast

Location: Metro Oakland International Airport

Current Time: Dec 18, 2014 at 10:50:27 PM

Latest Report: Dec 18, 2014 at 9:53 PM


Visibility: 10 mi

Pressure: 30.17 "Hg

Humidity: 86%

Dew point: 50 °F

Location of OaklandLocation

Historic Weather in Oakland — Graph

°F

Oakland temperature yesterday

Maximum temperature yesterday: 57 °F (at 12:53 PM)
Minimum temperature yesterday: 49 °F (at 3:53 AM)
Average temperature yesterday: 53 °F

Past Weeks' High & Low Weather Summary

 TemperatureHumidityPressure
High67 °F (Dec 8, 12:53 PM)100% (Dec 10, 12:04 AM)30.23 "Hg (Dec 10, 12:04 AM)
Low47 °F (Dec 13, 2:53 AM)58% (Dec 14, 12:53 PM)29.52 "Hg (Dec 11, 7:53 AM)
Average56 °F85%30.02 "Hg
* Reported Dec 3 9:53 PM — Dec 18 9:53 PM, Oakland, Weather by CustomWeather, © 2014

Note: Actual official high and low records may vary slightly from our data, if they occured in-between our weather recording intervals... More about our weather records

Advertising

Oakland weather history for previous 24 hours

 ConditionsComfort  
Time TempWeatherWind HumidityBarometerVisibility
9:53 PM
Dec 18
54 °FPartly cloudy.7 mph86%30.17 "Hg10 mi
8:53 PM55 °FPartly cloudy.10 mph83%30.15 "Hg10 mi
7:53 PM54 °FPartly cloudy.No wind86%30.15 "Hg10 mi
6:53 PM53 °FPartly cloudy.3 mph89%30.14 "Hg10 mi
5:53 PM55 °FMostly cloudy.3 mph83%30.14 "Hg10 mi
4:53 PM57 °FOvercast.5 mph81%30.14 "Hg10 mi
3:53 PM58 °FPartly sunny.3 mph75%30.13 "Hg10 mi
2:53 PM58 °FBroken clouds.3 mph72%30.14 "Hg10 mi
1:53 PM59 °FBroken clouds.6 mph72%30.14 "Hg10 mi
12:53 PM59 °FPartly sunny.5 mph75%30.14 "Hg10 mi
11:53 AM57 °FMostly cloudy.7 mph74%30.17 "Hg10 mi
10:53 AM56 °FMostly cloudy.3 mph77%30.19 "Hg10 mi
9:53 AM54 °FMostly cloudy.8 mph83%30.17 "Hg10 mi
8:53 AM53 °FMostly cloudy.9 mph83%30.15 "Hg10 mi
7:53 AM52 °FMostly cloudy.5 mph86%30.13 "Hg10 mi
6:53 AM52 °FLow clouds.9 mph86%30.11 "Hg9 mi
5:53 AM52 °FOvercast.6 mph86%30.11 "Hg10 mi
4:53 AM52 °FOvercast.7 mph86%30.08 "Hg10 mi
3:53 AM52 °FOvercast.7 mph86%30.07 "Hg10 mi
2:53 AM51 °FLow clouds.10 mph89%30.07 "Hg10 mi
1:53 AM51 °FLight rain. Overcast.7 mph89%30.07 "Hg10 mi
12:53 AM51 °FLight rain. Overcast.10 mph89%30.06 "Hg8 mi
11:53 PM
Dec 17
51 °FRain. Overcast.8 mph89%30.07 "Hg7 mi
10:53 PM51 °FLight rain. Fog.8 mph89%30.07 "Hg6 mi
Weather by CustomWeather, © 2014

See weather overviewHow to use our weather pages